Воскресенское

Россия / Республика Башкортостан     53°07′22″N   56°08′31″E
темп.,
°C
ветер,
м/с
пор.,
м/с
влажн.,
%
обл.,
%
осадки,
мм/ч
давл.,
гПа
погр.,
м
6 мая, чт
чт623:00+7зсз612602 0.0 1012717
02:00+5з310745 0.0 1013318
05:00+4з24865 0.0 101578
08:00+7зсз48725 0.0 1017636
11:00+11сз69505 0.0 10181361
14:00+15сз574588 0.0 10181917
17:00+14сз4653100 0.0 10181437
20:00+12с22675 0.0 101915
7 мая, пт
пт723:00+8вюв11775 0.0 102010
02:00+7вюв118220 0.0 102110
05:00+8ююв117798 0.0 102213
08:00+11ююв126996 0.0 1022109
11:00+16ююв23469 0.0 10221679
14:00+18ююз3338100 0.0 10212144
17:00+18ююз3338100 0.0 10201673
20:00+15зсз1154100 0.0 101911
8 мая, сб
сб823:00+12ссв1162100 0.0 102010
02:00+12ссв1166100 0.0 102012
05:00+11св1168100 0.0 102010
08:00+13с1262100 0.0 1019141
11:00+17с2345100 0.0 10191106
14:00+18ссз4344100 0.0 10181760
17:00+17ссв2452100 0.0 1018579
20:00+15св2362100 0.0 101866
9 мая, вс
вс923:00+12с227074 0.1 101811
02:00+10с1178100 0.0 101812
05:00+9ссз118093 0.0 101810
08:00+13с12665 0.0 1018179
11:00+19с23432 0.0 10181549
14:00+21сз333689 0.0 10172291
17:00+21сз443882 0.0 10171954
20:00+17с22555 0.0 101826
10 мая, пн
пн1023:00+13ссв116512 0.0 101910
02:00+11св11675 0.0 102010
05:00+10в11725 0.0 102110
08:00+14вюв11595 0.0 1022143
11:00+20ю1141100 0.0 1022756
14:00+21з2238100 0.0 10221479
17:00+22сз32357 0.0 10222016
20:00+18с225356 0.0 102228